Crescent City, CA

11:13 AM PDT on May 26, 2017 (GMT -0700)
McNamara

Weather History for KCEC - March, 2013

Change the Weather History Date:

Saturday, March 2, 2013

  Actual Average Record
Temperature  
Mean Temperature 48 °F 48 °F  
Max Temperature 50 °F 54 °F 70 °F (1965)
Min Temperature 46 °F 42 °F 29 °F (1951)
Degree Days  
Heating Degree Days 17 17  
Month to date heating degree days 31 34  
Since 1 July heating degree days 3264 3207  
Cooling Degree Days 0 0  
Month to date cooling degree days 0 0  
Year to date cooling degree days 0 0  
Moisture  
Dew Point 47 °F    
Average Humidity 97    
Maximum Humidity 100    
Minimum Humidity 93    
Precipitation  
Precipitation 0.01 in 0.25 in 6.55 in (1972)
Month to date precipitation 0.02 0.50  
Year to date precipitation 8.49 19.77  
Since 1 July precipitation 42.19  
Snow  
Snow 0.00 in - - ()
Month to date snowfall 0.0  
Since 1 July snowfall 0.0  
Snow Depth 0.00 in    
Sea Level Pressure  
Sea Level Pressure 30.25 in    
Wind  
Wind Speed 5 mph (NNW)    
Max Wind Speed 16 mph    
Max Gust Speed 21 mph    
Visibility 3 miles    
Events Fog , Rain    
T = Trace of Precipitation, MM = Missing Value Source: NWS Daily Summary

Daily Weather History Graph

Daily Weather History Graph

Search for Another Location

Airport or City:

Trip Planner

Search our weather history database for the weather conditions in past years. The results will help you decide how hot, cold, wet, or windy it might be!

Date:

Astronomy

Mar. 02, 2013 Rise Set
Actual Time 6:49 AM PST 6:08 PM PST
Civil Twilight 6:21 AM PST 6:36 PM PST
Nautical Twilight 5:49 AM PST 7:09 PM PST
Astronomical Twilight 5:17 AM PST 7:41 PM PST
Moon No Moon Rise 9:16 AM PST (3/2)
Length of Visible Light 12h 15m
Length of Day
11h 19m
Waning Gibbous, 73% of the Moon is Illuminated
Mar 2
Waning Gibbous
Mar 4
Last Quarter
Mar 11
New
Mar 19
First Quarter
Mar 27
Full

Hourly Weather History & Observations

Time (PST) Temp. Windchill Dew Point Humidity Pressure Visibility Wind Dir Wind Speed Gust Speed Precip Events Conditions
12:56 AM 46.9 °F - 46.0 °F 97% 30.34 in 0.5 mi Calm Calm - N/A Fog Fog
1:56 AM 46.0 °F - 46.0 °F 100% 30.31 in 0.5 mi Calm Calm - N/A Fog Fog
2:56 AM 46.0 °F - 46.0 °F 100% 30.28 in 1.0 mi Calm Calm - N/A   Mist
3:06 AM 46.4 °F - 46.4 °F 100% 30.26 in 1.8 mi Calm Calm - N/A   Overcast
3:27 AM 46.4 °F 44.3 °F 44.6 °F 93% 30.28 in 1.0 mi West 4.6 mph - N/A   Mist
3:35 AM 46.4 °F - 44.6 °F 93% 30.27 in 0.5 mi Calm Calm - N/A Fog Fog
4:56 AM 46.9 °F - 46.0 °F 97% 30.29 in 0.5 mi Calm Calm - N/A Fog Fog
5:56 AM 46.9 °F - 46.0 °F 97% 30.27 in 0.5 mi ENE 3.5 mph - N/A Fog Fog
6:56 AM 46.9 °F - 46.9 °F 100% 30.27 in 0.2 mi Calm Calm - N/A Fog Fog
7:47 AM 48.2 °F - 48.2 °F 100% 30.27 in 1.5 mi West 3.5 mph - N/A   Overcast
7:53 AM 48.2 °F - 46.4 °F 93% 30.27 in 1.0 mi WNW 3.5 mph - N/A   Overcast
7:56 AM 48.0 °F - 46.9 °F 96% 30.27 in 0.8 mi Calm Calm - N/A   Overcast
8:02 AM 48.2 °F - 46.4 °F 93% 30.27 in 1.5 mi Calm Calm - N/A   Overcast
8:15 AM 48.2 °F - 46.4 °F 93% 30.27 in 0.8 mi West 4.6 mph - N/A   Overcast
8:56 AM 48.0 °F - 46.9 °F 96% 30.29 in 0.2 mi West 3.5 mph - N/A Fog Fog
9:56 AM 48.0 °F - 48.0 °F 100% 30.30 in 0.2 mi WNW 4.6 mph - N/A Fog Fog
10:56 AM 48.9 °F - 48.0 °F 97% 30.29 in 0.2 mi NW 5.8 mph - N/A Fog Fog
11:56 AM 48.9 °F - 48.0 °F 97% 30.29 in 0.2 mi NW 4.6 mph - N/A Fog Fog
12:12 PM 48.2 °F - 48.2 °F 100% 30.28 in 1.5 mi Calm Calm - N/A   Overcast
12:16 PM 50.0 °F - 48.2 °F 94% 30.28 in 3.0 mi NNW 4.6 mph - N/A   Overcast
12:38 PM 50.0 °F - 48.2 °F 94% 30.27 in 7.0 mi NNW 4.6 mph - N/A   Overcast
12:56 PM 50.0 °F - 48.9 °F 96% 30.26 in 4.0 mi NNW 6.9 mph - N/A   Overcast
1:22 PM 48.2 °F - 48.2 °F 100% 30.26 in 6.0 mi NNW 4.6 mph - N/A   Overcast
1:33 PM 50.0 °F - 48.2 °F 94% 30.26 in 8.0 mi Calm Calm - N/A   Overcast
1:56 PM 48.9 °F - 48.9 °F 100% 30.26 in 7.0 mi NNW 5.8 mph - N/A   Overcast
2:18 PM 50.0 °F - 48.2 °F 94% 30.25 in 5.0 mi NW 3.5 mph - N/A   Overcast
2:56 PM 50.0 °F - 48.0 °F 93% 30.25 in 5.0 mi NNW 4.6 mph - N/A   Overcast
3:56 PM 50.0 °F - 48.9 °F 96% 30.24 in 5.0 mi NNE 3.5 mph - N/A   Overcast
4:07 PM 50.0 °F - 48.2 °F 94% 30.24 in 6.0 mi Calm Calm - N/A   Overcast
4:36 PM 50.0 °F - 48.2 °F 94% 30.23 in 7.0 mi North 3.5 mph - N/A   Overcast
4:56 PM 50.0 °F - 48.0 °F 93% 30.23 in 5.0 mi North 4.6 mph - N/A   Overcast
5:15 PM 50.0 °F - 48.2 °F 94% 30.22 in 2.5 mi Calm Calm - N/A   Overcast
5:21 PM 48.2 °F - 46.4 °F 93% 30.21 in 1.8 mi North 4.6 mph - N/A   Overcast
5:31 PM 48.2 °F - 46.4 °F 93% 30.21 in 2.5 mi NNW 5.8 mph - N/A   Overcast
5:40 PM 48.2 °F - 46.4 °F 93% 30.21 in 5.0 mi NNW 4.6 mph - N/A   Overcast
5:56 PM 48.9 °F - 46.9 °F 93% 30.22 in 4.0 mi North 5.8 mph - N/A   Overcast
6:56 PM 48.9 °F - 46.9 °F 93% 30.21 in 8.0 mi NNE 8.1 mph - N/A   Overcast
7:24 PM 48.2 °F - 46.4 °F 93% 30.21 in 2.5 mi NNW 3.5 mph - N/A   Overcast
7:45 PM 48.2 °F - 46.4 °F 93% 30.21 in 3.0 mi NW 3.5 mph - 0.00 in Rain Light Rain
7:56 PM 48.0 °F - 46.9 °F 96% 30.22 in 3.0 mi NW 5.8 mph - 0.00 in   Overcast
8:56 PM 48.9 °F - 46.9 °F 93% 30.21 in 5.0 mi North 3.5 mph - N/A   Overcast
9:07 PM 48.2 °F - 46.4 °F 93% 30.21 in 2.5 mi NNW 4.6 mph - N/A   Overcast
9:22 PM 48.2 °F - 46.4 °F 93% 30.21 in 4.0 mi NNW 8.1 mph - N/A   Overcast
9:35 PM 48.2 °F - 46.4 °F 93% 30.21 in 5.0 mi NNW 9.2 mph - N/A   Overcast
9:56 PM 48.9 °F - 46.9 °F 93% 30.21 in 6.0 mi NNW 6.9 mph - N/A   Overcast
10:13 PM 48.2 °F - 46.4 °F 93% 30.21 in 5.0 mi North 5.8 mph - N/A   Mostly Cloudy
10:32 PM 48.2 °F - 46.4 °F 93% 30.20 in 4.0 mi NNW 10.4 mph - N/A   Mostly Cloudy
10:56 PM 48.9 °F - 46.9 °F 93% 30.21 in 6.0 mi NNW 11.5 mph - N/A   Overcast
11:56 PM 48.9 °F - 46.9 °F 93% 30.20 in 5.0 mi NNW 9.2 mph 19.6 mph 0.01 in   Overcast